Cloud_Cover
100 100 100 100 65 60 96 100 100 100 100 100 100 100 100 100 100 100 100 9 5 89 79 5 5 60 11 4 0 0 2 5 1 3 75 100 36 5 5 22 5 0 0
73 100 95 100 17 77 100 100 100 100 100 100 100 100 100 100 96 100 100 35 50 97 71 8 5 9 15 0 0 0 0 0 0 0 0 0 4 1 3 5 10 4 0
23 100 97 100 100 100 100 78 96 100 100 100 100 100 100 100 36 100 100 100 100 100 36 100 37 8 5 5 0 0 0 0 0 0 0 0 0 0 0 2 5 5 5
67 12 100 100 100 100 100 100 83 100 100 100 99 93 100 100 100 100 100 100 100 100 99 8 6 5 5 5 5 7 12 1 0 0 0 0 0 0 0 0 0 0 0
89 24 18 100 100 100 100 96 100 100 100 100 92 100 66 100 100 100 95 66 100 100 98 8 5 78 5 5 88 5 32 86 58 2 0 0 0 0 0 0 0 0 0
15 35 71 26 99 100 100 100 100 100 100 32 100 92 52 96 100 100 100 100 87 100 35 5 5 5 6 49 76 0 5 1 2 3 4 0 0 0 0 0 0 0 0
26 30 4 26 53 99 79 87 98 97 100 69 100 100 100 100 100 95 18 22 7 5 5 5 8 8 5 5 5 5 5 5 5 4 1 5 0 0 0 2 0 0 0
6 4 10 0 5 25 51 15 14 96 98 38 100 96 82 27 7 11 5 1 56 4 0 4 5 5 6 5 1 4 5 5 5 5 5 5 5 4 2 0 0 0 0
1 1 4 4 0 27 5 28 16 5 29 18 4 5 5 6 2 5 5 1 3 14 1 0 10 0 0 3 0 0 5 4 5 5 4 2 3 5 5 5 5 5 5
2 0 2 2 0 1 3 3 5 3 2 5 0 2 11 85 1 93 5 5 1 19 70 0 0 0 0 1 0 2 4 5 3 5 0 5 0 1 5 5 5 5 5
5 5 2 4 0 2 5 0 4 5 3 3 3 0 94 57 100 84 10 0 0 4 1 0 0 0 19 5 5 0 4 1 100 3 0 5 2 0 0 2 1 1 4
5 5 5 5 5 5 5 5 5 5 94 100 65 2 91 100 19 5 4 5 0 0 0 5 4 0 0 4 3 61 100 100 100 88 5 0 1 18 5 5 8 5 5
1 2 5 5 5 5 5 4 5 5 4 73 97 10 77 72 100 5 3 2 5 0 3 5 4 4 1 4 6 97 100 100 100 63 5 0 5 100 100 91 95 18 80
1 5 5 5 5 5 5 4 0 1 3 5 42 99 76 98 11 5 3 5 9 4 5 5 4 1 0 1 87 100 100 59 74 20 45 2 20 100 100 95 57 100 100
5 70 29 5 49 16 5 5 5 5 5 9 5 100 100 38 8 60 5 5 5 18 10 5 5 5 5 15 59 71 14 100 5 60 100 66 62 81 78 96 22 43 100
46 96 100 14 5 5 22 5 5 5 19 9 5 5 5 5 15 31 33 41 68 54 100 6 20 14 7 10 5 13 100 31 77 100 100 84 99 62 48 100 99 98 76
47 100 98 60 100 96 100 77 65 28 5 28 59 7 5 52 5 80 72 65 67 26 7 5 46 100 94 99 91 98 53 100 19 100 100 100 95 47 100 99 39 100 85
78 62 96 100 100 99 100 100 100 100 87 6 98 14 5 15 10 23 40 77 84 94 60 5 46 90 98 71 52 41 100 100 88 64 91 100 100 100 100 100 72 100 100
98 41 85 76 100 80 86 87 98 95 100 80 36 60 70 43 80 55 94 97 96 100 100 44 7 54 90 86 100 66 32 82 100 100 100 100 100 90 100 100 80 16 50
96 60 70 8 90 100 98 100 20 5 9 9 60 99 93 95 76 70 61 91 100 53 21 100 100 78 100 29 81 58 98 100 100 100 100 90 100 84 98 10 40 78 45
99 9 9 9 0 1 9 65 79 18 13 14 6 15 100 100 100 99 90 98 100 98 59 59 86 57 100 100 90 5 11 4 13 100 36 12 41 5 88 98 91 12 28
100 10 61 93 0 0 0 0 0 7 19 70 25 100 100 71 92 99 99 78 33 100 98 9 5 18 89 15 11 23 20 10 16 8 0 1 5 0 5 14 82 90 58
100 100 1 3 0 0 0 0 0 0 6 8 11 65 67 53 73 67 92 77 24 24 5 5 11 99 84 74 13 6 11 34 8 5 0 0 0 0 74 100 100 100 100
100 100 65 5 0 6 1 0 1 2 0 0 0 0 6 95 98 100 97 85 42 18 6 13 17 39 72 96 99 24 68 31 3 5 1 0 0 0 16 53 97 100 100
100 100 100 28 5 71 76 32 13 7 0 45 83 95 91 44 1 7 20 25 14 2 36 36 20 27 41 25 12 0 0 1 0 10 1 0 0 4 5 44 17 43 100
100 100 100 100 87 100 100 100 100 100 100 100 100 100 100 100 100 100 39 0 0 0 0 8 0 25 1 1 4 0 7 10 19 16 3 1 1 8 8 6 14 23 95